Temperature
17 18 19 19 21 22 22 23 23 23 23 23 22 23 24 25 25 25 21 21 21 21 20 18 17 16 16 16 15 15 14 14 14 13 12 13 13 13 13 13 12 12 12 12 13 13 13 13 12
17 18 19 20 21 21 22 23 22 23 22 21 22 22 23 24 23 21 20 21 21 21 20 18 16 15 15 15 15 14 14 14 14 13 12 12 12 12 12 12 12 12 12 13 13 13 13 13 13
17 18 19 21 21 21 22 22 23 22 21 21 23 23 23 23 21 20 19 21 21 21 19 18 17 15 15 15 15 14 14 15 14 13 12 12 12 12 12 12 12 12 13 13 13 13 13 13 13
16 18 19 20 21 22 22 23 22 22 22 22 22 24 23 21 20 20 20 20 19 19 19 19 17 16 15 15 15 14 15 15 14 13 13 13 13 13 13 13 13 13 13 13 13 13 13 13 13
16 19 20 20 20 22 22 21 20 22 22 22 22 24 24 21 21 20 21 20 19 18 18 18 17 16 15 15 15 15 15 15 15 13 13 13 13 13 13 13 13 13 13 13 14 14 14 14 14
17 19 19 20 21 21 21 20 20 22 22 22 22 23 24 21 20 21 21 20 19 19 18 18 17 15 15 15 15 15 15 15 15 14 13 13 13 13 13 13 13 13 13 14 14 14 14 13 13
17 19 19 20 21 21 21 20 21 22 22 22 22 23 23 21 20 20 20 20 18 17 17 18 17 15 15 15 15 15 15 15 15 14 14 13 13 13 13 13 13 13 13 14 14 14 13 13 13
16 19 19 19 20 20 20 19 20 21 21 20 20 23 23 20 20 20 19 19 18 17 17 17 16 15 15 14 14 15 15 15 15 14 14 14 14 13 13 13 13 13 13 14 14 13 13 13 13
15 17 18 19 19 20 19 20 20 19 20 20 20 20 20 19 19 19 19 18 18 18 17 16 16 16 15 14 14 14 15 15 15 15 14 14 14 13 13 13 13 13 13 13 13 13 12 12 12
15 16 18 19 19 20 19 19 19 19 20 20 20 20 19 19 18 18 18 18 18 18 18 17 16 16 15 14 14 14 14 14 14 14 14 14 14 14 14 14 13 13 13 13 13 12 12 12 12
15 16 17 17 17 17 18 18 18 19 20 20 20 20 19 18 18 18 18 18 18 18 18 18 18 16 15 15 14 14 14 14 14 14 14 14 14 14 14 13 13 12 12 12 12 12 12 12 12
14 15 15 15 15 16 16 17 17 18 18 19 19 18 18 18 19 19 18 18 18 17 18 18 18 17 16 15 15 14 14 14 14 14 14 14 14 13 13 12 12 12 12 12 12 12 12 12 12
14 14 14 14 14 14 15 15 16 17 17 17 17 17 18 18 19 19 18 18 18 18 18 18 18 18 18 16 15 14 14 14 13 13 13 13 13 13 12 12 12 11 11 11 11 11 12 12 12
13 13 13 13 14 14 14 15 15 16 16 16 16 17 17 18 19 19 18 18 18 19 19 19 19 19 18 17 16 15 14 14 13 13 13 13 12 12 11 11 11 11 11 11 11 12 12 11 11
12 13 14 14 14 14 14 15 16 16 16 16 16 17 17 18 18 18 19 18 19 19 18 18 19 19 19 18 16 15 14 14 13 13 13 12 12 11 11 11 11 11 11 11 12 11 11 11 10
12 12 12 14 14 14 14 15 17 16 16 16 16 17 17 17 18 18 19 19 18 18 18 19 19 19 19 18 16 15 14 14 13 13 13 12 12 12 11 11 11 11 11 11 11 11 11 10 10
11 12 13 14 14 14 14 14 17 15 15 16 16 17 17 17 17 17 18 18 18 18 18 19 19 19 19 18 16 15 14 14 13 13 13 12 12 12 11 11 11 11 11 11 11 11 10 10 10
13 12 12 13 14 13 13 14 16 15 15 15 16 16 16 16 16 16 17 17 17 18 19 19 19 19 19 17 14 14 14 14 14 13 13 12 12 12 11 11 11 11 11 11 11 10 10 10 9
12 12 12 13 13 12 13 14 15 15 15 15 15 15 16 16 16 16 16 16 16 17 18 19 19 19 18 16 15 15 15 14 14 13 12 12 12 11 11 11 11 11 11 10 10 10 9 9 9
10 10 11 12 12 12 12 13 14 15 15 14 15 15 15 16 16 16 16 16 16 17 18 18 19 19 18 17 16 16 15 14 13 13 12 12 11 11 11 11 11 11 10 10 10 9 9 8 8
9 9 10 10 11 11 11 12 15 16 15 14 14 14 15 15 16 16 16 16 16 16 17 18 18 18 17 16 15 15 15 14 13 12 12 11 11 11 11 11 11 10 10 9 9 8 8 7 6
9 10 10 9 9 10 10 10 14 15 14 14 15 15 15 15 15 15 16 16 16 16 17 17 18 18 16 16 16 16 15 14 13 12 11 11 10 11 11 10 10 10 9 9 8 8 7 6 5
9 9 9 9 9 9 10 8 12 14 13 14 15 15 16 16 15 15 15 15 16 16 17 17 17 17 16 16 15 14 14 14 13 12 11 11 10 10 10 10 10 9 9 8 8 7 6 6 5
9 8 8 8 8 7 10 10 11 15 15 15 16 16 15 15 15 14 14 14 14 15 16 16 16 16 15 14 13 13 14 14 13 11 11 10 10 10 10 10 9 9 8 8 7 6 6 5 4
8 7 8 8 7 9 12 11 12 15 15 15 15 15 15 14 14 14 14 13 13 14 16 16 15 15 14 13 13 13 13 13 12 12 11 11 10 10 10 9 9 8 7 7 6 6 5 4 3
8 8 8 9 10 11 11 10 13 15 15 14 14 14 14 14 14 13 13 13 13 14 15 15 14 14 13 13 13 13 13 12 12 12 11 10 10 10 9 9 8 7 7 6 5 5 4 3 3
7 7 9 8 8 8 10 11 13 14 14 14 14 14 13 13 13 13 12 12 12 13 14 14 13 13 13 12 12 12 12 12 11 11 10 10 10 9 9 8 7 6 6 5 5 4 3 3 2
8 8 7 6 7 8 10 12 13 14 14 14 14 14 13 13 12 12 12 12 11 12 11 11 11 12 12 12 12 12 11 11 11 10 10 10 9 9 8 7 6 6 5 4 4 3 3 2 1
7 6 6 7 8 8 9 12 14 13 14 14 14 13 12 12 11 11 11 11 10 9 9 9 10 11 11 11 12 11 11 11 10 10 9 9 9 8 7 6 6 5 4 4 3 2 2 1 1
9 8 7 6 7 8 8 10 14 13 13 13 13 12 12 11 10 10 10 9 8 8 8 9 10 11 11 11 11 11 10 10 9 9 9 8 8 7 6 5 5 4 3 3 2 1 1 1 0
Wind_Speed
9 6 4 3 5 6 8 5 4 2 2 3 6 6 5 5 4 1 3 9 7 15 17 19 17 17 16 15 14 12 11 9 9 10 10 8 6 5 5 6 5 5 6 7 7 7 7 7 6
5 4 3 4 7 10 8 6 6 1 5 7 5 5 6 5 2 2 6 9 9 15 16 18 18 17 16 15 13 12 11 10 9 9 8 7 6 5 5 6 5 5 6 6 7 7 7 6 5
2 2 4 5 8 11 6 5 6 1 5 4 3 3 4 2 1 1 5 10 11 15 16 17 20 18 16 15 13 12 11 10 10 8 6 4 3 4 5 5 4 5 5 6 6 6 6 6 6
4 4 5 10 16 14 7 2 1 5 4 3 4 4 2 1 1 3 6 10 11 14 16 17 19 18 17 15 14 12 11 10 9 8 5 3 1 2 3 4 5 6 5 4 4 4 5 5 5
5 6 10 14 19 14 10 7 6 7 6 5 6 5 2 3 2 3 7 11 11 13 14 17 19 19 17 16 14 12 11 10 9 7 5 4 5 4 2 6 8 6 4 3 4 5 6 6 5
6 7 12 18 20 14 10 8 8 10 8 6 6 5 1 3 3 5 8 10 11 13 13 15 17 17 17 16 14 13 11 10 9 7 5 4 6 7 4 8 7 5 2 3 5 6 7 6 6
8 10 17 19 18 16 12 9 11 11 10 6 4 4 2 3 4 6 9 9 10 11 12 13 15 15 16 16 14 13 11 10 9 7 5 6 7 7 7 7 6 3 2 4 5 7 6 6 7
7 7 15 17 18 17 10 8 7 10 9 2 4 6 2 5 3 6 8 9 9 10 11 11 12 13 14 15 14 13 12 11 9 8 9 8 6 5 6 6 7 4 4 5 7 8 9 9 9
5 10 17 17 14 12 9 10 8 4 6 5 4 3 3 3 4 7 8 9 10 10 11 11 11 12 12 12 13 13 12 11 11 10 9 5 3 3 4 6 6 5 6 7 9 9 8 6 8
8 13 18 12 12 10 9 8 6 6 9 8 7 4 1 1 4 9 10 12 13 13 13 12 12 11 12 11 12 11 11 11 10 8 7 4 3 4 4 7 6 7 8 10 9 8 5 4 4
8 12 12 10 11 10 10 10 8 10 14 13 11 8 4 4 4 7 10 10 11 12 13 13 13 12 11 10 11 9 9 9 9 9 7 5 5 5 5 5 5 5 5 5 5 3 5 5 5
8 11 10 9 9 12 15 15 16 18 20 15 12 9 10 10 9 8 9 10 9 11 13 14 14 13 12 11 10 10 9 8 8 9 9 7 5 5 5 4 5 4 4 4 3 3 5 5 5
13 9 9 11 11 13 15 18 18 20 19 17 16 15 16 15 13 10 9 9 10 12 13 14 15 15 14 12 10 10 10 10 10 9 9 8 6 6 6 5 6 5 4 3 3 4 5 5 5
5 9 10 10 12 13 17 21 20 21 18 19 21 21 21 19 18 15 12 11 12 13 14 14 16 16 15 13 12 11 11 10 10 10 10 10 7 6 6 6 5 5 5 4 4 4 4 4 4
4 9 12 13 14 11 12 18 22 24 22 22 23 23 23 22 21 19 16 13 12 12 12 13 15 16 17 16 15 12 11 12 10 10 12 10 9 10 8 6 5 5 5 5 4 4 4 4 4
4 6 7 6 7 9 11 17 13 12 15 19 21 21 22 22 23 22 20 15 12 11 11 11 12 16 17 15 15 12 12 12 10 10 11 12 13 13 10 7 6 6 5 4 4 4 4 5 6
7 8 9 8 7 7 11 14 9 6 10 14 16 16 16 17 20 20 19 16 13 12 11 11 13 16 17 15 14 14 12 11 10 10 10 13 14 14 11 8 7 7 5 4 4 4 5 6 7
7 8 8 9 4 7 15 19 16 15 16 17 17 17 16 16 17 16 16 15 12 11 10 11 13 15 16 14 12 11 11 10 9 9 11 14 14 14 12 9 9 7 5 5 4 5 5 6 6
6 9 12 10 8 11 19 24 21 20 21 22 23 22 22 21 19 17 17 14 12 11 10 11 13 15 15 14 14 12 11 10 9 8 11 13 15 14 11 9 8 6 6 6 5 4 5 6 6
15 16 17 14 12 12 21 30 26 25 27 26 26 26 26 25 24 22 21 17 14 13 12 12 15 17 18 15 14 10 11 9 9 9 9 11 13 13 11 10 8 7 7 7 6 4 3 4 5
16 17 16 15 14 15 18 24 21 15 16 18 21 23 25 26 26 25 24 23 18 15 14 13 16 17 18 17 12 12 9 8 7 8 7 7 10 11 12 11 9 7 7 6 5 5 4 4 4
12 11 14 13 10 8 7 12 17 11 11 12 15 18 21 22 23 23 24 24 21 18 14 15 17 18 19 18 17 20 14 12 10 9 9 9 10 11 12 12 10 8 7 7 5 4 3 3 3
9 5 9 11 13 13 15 11 18 13 15 14 17 20 20 19 18 19 20 21 20 17 16 17 18 19 19 19 19 18 15 13 13 12 14 11 10 11 12 11 10 8 7 6 5 4 3 2 2
8 5 9 11 9 12 20 16 17 16 16 15 16 15 15 14 14 15 17 17 16 15 16 18 20 20 20 19 19 18 19 19 18 17 15 11 9 9 11 10 9 8 7 6 5 4 2 1 1
10 6 4 6 8 11 12 12 16 17 14 16 15 14 13 13 12 12 13 14 15 17 19 20 21 21 21 20 19 18 20 22 23 20 16 14 11 10 11 9 8 7 7 6 5 3 2 2 3
14 11 9 7 9 12 9 15 15 16 14 15 15 14 12 12 12 12 12 12 15 19 21 22 22 22 21 20 18 17 18 15 15 17 15 14 11 10 11 9 8 8 7 6 4 3 2 3 4
7 12 12 11 15 15 14 18 21 19 17 17 15 12 10 12 13 12 10 11 14 18 21 22 23 21 21 19 18 17 15 15 16 15 14 11 11 11 11 10 8 7 6 5 3 2 2 3 4
12 6 7 8 8 14 19 25 21 20 17 17 14 10 10 12 14 14 10 10 13 15 18 19 20 20 19 18 17 14 14 15 16 15 14 13 13 12 11 10 8 7 5 4 3 2 2 4 4
15 10 11 9 10 10 16 16 10 11 12 12 10 8 11 13 15 14 9 8 11 14 17 18 18 19 18 17 16 16 15 15 16 14 14 14 13 12 11 9 7 6 4 3 2 3 3 5 5
17 18 17 12 14 12 12 19 11 11 11 10 11 11 13 14 14 12 7 7 12 15 17 17 17 17 17 17 17 16 16 16 15 15 14 13 12 11 10 8 6 4 3 2 2 3 4 5 7
Wind_Direction
314 315 294 273 258 241 247 232 230 254 271 303 299 270 261 250 243 320 79 148 140 155 160 162 164 160 158 153 146 140 136 130 128 125 118 117 122 121 122 123 109 80 55 47 51 50 46 43 39
311 302 272 262 250 244 235 219 210 185 331 315 281 242 244 247 302 43 128 150 154 158 162 165 162 163 161 155 150 148 143 135 134 132 129 133 137 139 143 143 125 94 67 57 57 54 48 42 34
256 286 264 241 238 242 239 204 188 1 323 302 294 257 266 292 41 86 128 156 161 163 165 157 161 165 162 158 155 153 149 144 142 138 129 140 159 160 155 154 132 107 86 70 60 51 37 25 12
224 208 222 236 238 238 248 178 159 314 321 302 305 281 239 56 54 85 130 160 167 168 167 157 164 164 163 161 160 158 155 155 154 144 120 94 94 205 200 172 137 124 107 78 54 32 17 8 358
216 221 226 234 241 240 238 259 279 289 298 299 302 289 257 117 114 132 147 164 170 170 169 160 164 164 165 163 164 163 161 162 164 159 139 94 55 30 230 167 144 136 117 66 25 9 5 358 352
200 211 228 235 237 233 240 247 263 271 279 285 276 266 241 116 142 141 150 165 172 170 169 162 163 164 165 166 167 165 165 166 168 169 160 110 58 37 82 145 142 136 102 33 11 359 353 353 357
213 216 233 240 244 240 239 235 248 263 264 261 255 246 178 114 106 140 148 157 168 172 173 168 168 171 169 167 168 168 167 167 166 166 148 108 78 58 74 113 127 117 59 25 11 3 8 26 33
230 225 236 236 241 242 230 221 238 248 258 259 236 238 191 54 113 146 151 157 167 176 180 175 174 178 179 176 170 169 167 163 159 146 122 112 106 95 83 98 81 64 40 28 34 47 56 62 59
211 228 234 230 237 241 218 219 215 230 236 225 218 265 12 29 169 171 170 173 175 183 187 185 182 182 184 180 169 174 171 167 161 149 133 152 183 169 143 85 70 59 55 57 65 68 70 75 73
210 232 238 240 237 236 206 210 208 220 220 222 223 213 47 48 199 207 204 196 190 188 190 190 190 187 186 180 177 184 181 178 182 168 165 170 155 151 138 111 91 85 91 89 80 76 64 12 19
216 237 249 239 237 241 236 237 242 247 242 237 247 254 291 309 263 240 236 225 208 198 192 193 190 191 190 186 186 184 184 182 183 179 173 162 152 149 152 147 135 120 114 97 89 71 41 22 12
229 242 249 252 245 248 253 256 253 249 251 260 264 271 281 282 279 266 256 243 225 212 203 197 190 189 191 192 190 189 187 185 184 183 181 172 158 153 146 131 107 103 93 79 61 37 31 10 359
233 248 248 252 255 259 262 256 259 259 256 257 257 263 268 270 270 267 263 251 229 219 212 203 196 193 190 192 192 194 192 189 187 180 181 176 166 156 136 113 101 93 86 78 48 28 18 360 354
254 259 263 264 262 262 260 261 255 255 255 254 253 255 256 257 260 264 258 247 235 225 217 206 199 196 193 191 190 193 193 190 187 181 179 177 166 143 124 111 101 93 83 67 51 37 12 358 354
267 275 273 259 255 254 264 262 248 253 255 253 252 251 251 252 254 256 255 253 246 236 227 214 205 197 197 196 193 189 188 186 187 180 176 171 151 134 123 117 111 105 97 81 57 41 10 2 353
241 255 263 256 247 242 240 262 264 254 252 252 253 252 249 248 248 249 251 252 250 242 231 221 208 201 198 197 195 187 184 183 181 174 167 154 140 132 126 122 115 114 104 88 65 29 13 8 357
226 242 251 266 245 251 242 267 274 267 257 260 261 260 255 251 248 247 249 251 250 242 231 219 209 202 196 195 194 186 178 174 166 156 148 142 136 135 131 125 123 121 108 90 75 47 21 9 357
232 234 246 253 257 271 262 263 266 265 271 271 268 264 259 255 252 251 250 251 252 247 232 218 204 193 186 188 186 170 161 155 145 141 142 139 135 135 130 126 129 125 113 100 86 68 41 14 346
265 256 260 262 279 291 274 274 272 271 268 267 266 264 261 258 254 254 255 255 253 244 229 213 193 180 177 179 173 166 159 147 133 128 134 135 133 134 133 130 127 121 108 99 84 70 48 25 354
250 259 266 275 274 280 284 282 278 269 263 262 262 261 258 257 254 250 249 248 246 239 224 205 186 178 180 181 176 168 146 131 122 119 116 125 131 136 136 132 127 122 115 104 88 68 50 37 18
244 250 262 271 291 279 285 286 277 265 259 257 256 256 256 253 250 246 242 239 235 231 216 198 183 179 181 176 159 141 127 125 121 119 115 124 133 136 134 129 126 124 119 107 92 71 50 34 32
253 249 253 262 268 275 271 289 287 284 273 262 256 254 252 249 246 243 239 234 225 220 206 192 179 178 178 170 167 164 161 157 154 144 134 134 135 134 131 129 127 125 118 114 102 84 67 30 13
243 242 244 255 262 269 256 261 281 275 267 265 260 257 256 256 252 246 241 236 224 209 192 183 176 178 175 174 173 170 158 146 138 133 135 135 136 134 133 132 129 125 120 116 116 109 89 52 358
229 236 259 255 255 258 253 243 274 273 267 269 266 265 270 275 271 261 251 241 225 197 183 177 176 177 174 173 172 167 151 145 144 145 146 145 142 139 136 133 129 129 127 129 131 129 126 125 264
203 213 252 237 227 248 255 240 257 274 263 257 268 280 291 296 289 278 259 233 207 188 183 179 177 175 174 172 170 161 156 153 155 155 156 154 151 147 142 137 138 135 135 138 143 146 164 226 261
203 209 226 254 258 270 257 246 257 268 259 259 266 277 292 307 306 289 268 233 203 189 184 181 178 174 172 169 163 156 155 153 155 157 156 155 150 143 141 139 142 143 145 148 151 163 207 246 264
202 219 236 261 271 272 259 257 262 258 254 254 255 265 292 315 321 306 276 234 204 190 185 182 176 171 168 163 153 150 152 150 149 149 147 140 135 137 139 142 147 149 152 153 165 208 233 257 277
231 227 211 221 255 260 262 264 263 262 252 249 250 267 299 318 324 320 287 231 200 188 183 179 172 165 159 152 146 142 145 144 143 144 141 136 135 136 141 147 151 154 157 165 191 233 256 280 294
205 216 220 236 244 261 273 270 275 265 259 253 251 280 309 320 322 323 297 227 189 177 173 168 163 154 150 145 137 136 138 138 139 136 133 132 134 139 143 148 153 158 167 183 222 259 282 296 302
225 226 223 237 244 245 261 270 272 256 260 252 264 295 312 316 319 321 291 196 173 169 164 158 153 148 144 138 134 135 135 134 132 129 129 131 133 136 140 146 152 157 170 211 264 288 295 298 298
Height
1526 1526 1527 1527 1524 1519 1515 1511 1510 1511 1510 1510 1510 1509 1505 1503 1503 1507 1506 1504 1506 1508 1511 1512 1513 1514 1515 1516 1517 1518 1518 1519 1519 1519 1520 1521 1523 1523 1524 1524 1524 1524 1523 1522 1521 1520 1521 1521 1521
1524 1526 1527 1526 1521 1519 1513 1508 1509 1510 1511 1510 1509 1508 1506 1504 1505 1506 1504 1504 1506 1508 1511 1513 1514 1515 1516 1517 1518 1519 1519 1519 1519 1520 1521 1522 1523 1524 1525 1525 1525 1525 1524 1523 1522 1521 1520 1521 1521
1523 1525 1526 1522 1518 1514 1510 1507 1507 1510 1511 1510 1507 1506 1505 1504 1505 1505 1504 1504 1506 1508 1510 1512 1514 1515 1516 1518 1518 1519 1519 1519 1519 1520 1521 1523 1524 1525 1526 1526 1526 1525 1525 1524 1523 1522 1521 1521 1521
1523 1524 1524 1519 1513 1508 1507 1507 1510 1510 1509 1509 1508 1504 1504 1504 1504 1504 1504 1505 1506 1508 1510 1511 1513 1515 1517 1518 1519 1519 1520 1519 1520 1521 1522 1523 1524 1525 1526 1527 1527 1527 1526 1525 1524 1523 1522 1522 1522
1520 1520 1517 1514 1509 1505 1508 1509 1511 1509 1508 1507 1507 1503 1502 1503 1503 1503 1504 1506 1507 1509 1510 1511 1512 1515 1516 1518 1518 1519 1520 1520 1520 1521 1522 1523 1524 1525 1526 1527 1527 1527 1527 1525 1524 1524 1523 1524 1523
1518 1515 1513 1508 1503 1503 1508 1509 1509 1507 1506 1507 1506 1503 1501 1503 1503 1503 1504 1505 1507 1509 1510 1511 1512 1514 1516 1517 1518 1519 1520 1520 1521 1522 1523 1524 1524 1525 1526 1527 1528 1528 1527 1526 1525 1525 1524 1524 1524
1515 1510 1505 1502 1501 1501 1504 1507 1507 1505 1504 1505 1505 1502 1501 1503 1502 1502 1503 1505 1506 1508 1510 1511 1512 1514 1515 1517 1518 1519 1520 1520 1521 1522 1523 1524 1525 1526 1526 1527 1528 1528 1527 1526 1526 1525 1525 1525 1524
1511 1508 1503 1501 1501 1499 1502 1504 1504 1504 1503 1504 1504 1501 1500 1503 1502 1502 1503 1504 1505 1506 1509 1511 1512 1514 1516 1516 1517 1519 1519 1520 1521 1522 1523 1523 1524 1526 1526 1527 1527 1527 1527 1527 1526 1525 1525 1525 1524
1510 1508 1500 1498 1499 1497 1501 1501 1502 1503 1502 1502 1502 1502 1502 1501 1501 1502 1502 1503 1504 1505 1507 1509 1511 1513 1515 1516 1517 1518 1519 1520 1521 1521 1522 1523 1524 1525 1526 1526 1526 1527 1527 1526 1526 1526 1526 1524 1523
1508 1502 1496 1495 1497 1497 1499 1499 1500 1500 1499 1499 1499 1500 1500 1500 1500 1501 1502 1503 1503 1504 1505 1507 1508 1511 1513 1514 1515 1517 1518 1519 1520 1521 1521 1522 1523 1524 1524 1525 1526 1526 1526 1526 1526 1525 1525 1524 1522
1504 1499 1496 1499 1500 1500 1499 1499 1500 1498 1495 1496 1497 1498 1498 1498 1498 1499 1500 1501 1502 1503 1503 1504 1506 1508 1510 1512 1513 1514 1516 1517 1518 1519 1520 1521 1522 1522 1524 1525 1525 1526 1526 1526 1525 1525 1524 1522 1520
1503 1500 1501 1500 1500 1500 1499 1497 1497 1495 1494 1495 1496 1496 1495 1496 1496 1496 1497 1498 1499 1500 1500 1502 1503 1505 1506 1509 1510 1512 1513 1515 1516 1517 1518 1520 1520 1521 1523 1524 1524 1525 1525 1525 1524 1523 1522 1520 1518
1501 1499 1500 1500 1500 1499 1497 1495 1494 1491 1492 1493 1493 1493 1493 1492 1493 1493 1493 1494 1495 1496 1497 1499 1500 1501 1502 1504 1507 1509 1511 1512 1514 1515 1516 1518 1519 1520 1521 1521 1522 1523 1524 1523 1522 1521 1519 1518 1515
1500 1499 1497 1497 1496 1496 1494 1490 1491 1484 1488 1488 1488 1488 1488 1488 1489 1489 1490 1490 1491 1492 1494 1495 1496 1497 1498 1500 1502 1505 1507 1509 1511 1512 1514 1516 1517 1518 1519 1520 1521 1522 1522 1521 1520 1519 1517 1515 1512
1501 1498 1493 1491 1492 1491 1491 1484 1481 1479 1482 1482 1481 1481 1482 1483 1484 1484 1485 1486 1487 1488 1490 1491 1492 1493 1494 1496 1498 1501 1503 1506 1508 1510 1512 1513 1515 1517 1518 1519 1520 1520 1520 1520 1519 1517 1514 1512 1509
1498 1497 1493 1485 1487 1486 1490 1476 1472 1474 1475 1474 1474 1474 1474 1475 1477 1478 1479 1480 1481 1483 1484 1485 1487 1488 1489 1491 1494 1496 1499 1503 1505 1508 1509 1511 1513 1515 1516 1517 1518 1519 1518 1518 1517 1515 1512 1510 1508
1495 1490 1487 1486 1485 1483 1481 1472 1470 1472 1472 1470 1469 1469 1468 1469 1470 1471 1473 1474 1475 1476 1477 1479 1481 1483 1484 1486 1489 1493 1495 1498 1501 1504 1507 1509 1511 1513 1515 1516 1517 1517 1517 1516 1515 1513 1511 1509 1506
1484 1486 1486 1485 1481 1482 1476 1469 1467 1469 1469 1467 1465 1465 1464 1464 1463 1465 1466 1467 1467 1469 1470 1472 1474 1476 1478 1480 1485 1488 1490 1493 1497 1500 1503 1506 1508 1510 1513 1514 1515 1516 1515 1514 1513 1512 1509 1507 1505
1487 1486 1483 1482 1482 1481 1471 1463 1462 1463 1463 1462 1460 1459 1457 1457 1457 1458 1459 1459 1460 1462 1464 1466 1468 1469 1471 1474 1477 1480 1484 1488 1492 1496 1500 1503 1505 1508 1510 1512 1514 1514 1514 1513 1511 1510 1507 1506 1504
1491 1489 1485 1482 1482 1480 1468 1456 1454 1454 1452 1453 1452 1450 1449 1448 1449 1450 1451 1452 1452 1454 1457 1459 1461 1463 1465 1468 1472 1476 1479 1484 1488 1492 1496 1499 1503 1505 1508 1510 1512 1512 1511 1510 1509 1508 1506 1504 1502
1489 1488 1485 1485 1482 1478 1473 1449 1437 1436 1439 1442 1442 1440 1439 1437 1437 1439 1440 1442 1444 1446 1449 1452 1453 1455 1458 1462 1465 1470 1475 1479 1484 1488 1492 1496 1500 1503 1505 1508 1509 1509 1509 1508 1507 1506 1504 1503 1501
1486 1483 1484 1485 1486 1476 1473 1458 1428 1431 1435 1435 1435 1431 1428 1426 1426 1427 1429 1431 1434 1437 1441 1443 1445 1448 1452 1455 1459 1465 1470 1474 1479 1484 1489 1493 1497 1501 1503 1505 1506 1506 1506 1505 1505 1504 1503 1501 1500
1481 1483 1483 1482 1481 1478 1468 1470 1433 1428 1429 1428 1426 1422 1418 1418 1419 1419 1420 1422 1424 1428 1431 1435 1437 1441 1445 1450 1456 1463 1467 1471 1476 1481 1486 1490 1495 1498 1500 1502 1503 1503 1503 1503 1502 1501 1500 1499 1498
1481 1484 1483 1481 1481 1475 1454 1458 1433 1419 1419 1419 1416 1414 1413 1413 1413 1412 1413 1414 1416 1418 1422 1426 1431 1435 1440 1445 1452 1458 1463 1467 1472 1477 1482 1487 1491 1494 1497 1499 1500 1500 1500 1500 1499 1498 1497 1495 1494
1481 1483 1479 1474 1472 1456 1439 1442 1426 1413 1415 1414 1412 1411 1409 1408 1407 1406 1405 1406 1407 1409 1414 1419 1424 1429 1434 1441 1448 1454 1460 1465 1469 1474 1479 1484 1488 1491 1494 1496 1498 1498 1497 1496 1495 1494 1493 1492 1490
1474 1474 1471 1462 1448 1437 1436 1434 1417 1409 1411 1411 1410 1409 1406 1404 1402 1400 1399 1399 1399 1402 1407 1413 1418 1424 1430 1436 1443 1450 1457 1462 1467 1472 1477 1481 1485 1489 1492 1494 1495 1495 1494 1493 1492 1491 1490 1488 1486
1471 1471 1465 1464 1453 1449 1433 1418 1408 1406 1408 1407 1405 1405 1403 1400 1398 1395 1393 1393 1394 1396 1401 1407 1413 1419 1425 1432 1438 1446 1453 1459 1464 1469 1474 1478 1483 1486 1489 1491 1492 1492 1491 1490 1488 1487 1486 1484 1482
1466 1464 1467 1466 1452 1435 1418 1408 1400 1395 1398 1399 1399 1399 1398 1397 1394 1390 1388 1388 1390 1392 1398 1405 1411 1416 1422 1428 1436 1443 1450 1457 1463 1467 1472 1477 1481 1484 1486 1488 1489 1489 1488 1486 1485 1483 1482 1480 1477
1462 1465 1462 1453 1444 1434 1416 1400 1387 1391 1393 1393 1395 1396 1395 1393 1390 1387 1384 1385 1386 1389 1395 1403 1409 1414 1420 1427 1434 1441 1448 1455 1461 1466 1471 1475 1479 1482 1484 1485 1486 1485 1484 1482 1481 1479 1477 1475 1473
1447 1446 1449 1448 1436 1429 1420 1398 1388 1391 1391 1392 1392 1392 1391 1389 1386 1383 1381 1382 1384 1387 1393 1400 1406 1412 1419 1426 1433 1440 1447 1453 1459 1465 1470 1474 1477 1479 1481 1482 1482 1481 1480 1479 1477 1475 1473 1470 1468